Total_Precipitation_Accumulation
1.20 1.25 1.34 1.56 1.74 1.75 1.68 1.52 1.36 1.35 1.33 1.31 1.34 1.38 1.35 1.29 1.27 1.33 1.31 1.24 1.26 1.26 1.29 1.33 1.36 1.38 1.40 1.33 1.33 1.35 1.32 1.38 1.38 0.87 0.71 0.75 0.93 1.02 1.02 0.97 1.01 1.06 1.09
1.17 1.21 1.27 1.36 1.51 1.72 1.66 1.52 1.35 1.31 1.32 1.33 1.30 1.32 1.30 1.30 1.29 1.31 1.30 1.24 1.24 1.23 1.24 1.23 1.23 1.27 1.35 1.29 1.25 1.22 1.17 1.12 1.18 1.00 0.75 0.74 0.82 0.91 1.02 1.11 1.10 1.08 1.02
1.17 1.20 1.19 1.25 1.32 1.42 1.54 1.49 1.37 1.29 1.27 1.29 1.31 1.31 1.32 1.34 1.32 1.24 1.26 1.22 1.18 1.19 1.21 1.22 1.18 1.24 1.31 1.26 1.24 1.18 1.08 1.01 1.01 1.02 0.84 0.75 0.80 0.85 1.03 1.20 1.22 1.22 1.15
1.07 1.12 1.11 1.10 1.15 1.19 1.29 1.46 1.45 1.36 1.26 1.20 1.20 1.25 1.34 1.49 1.51 1.44 1.47 1.35 1.23 1.17 1.13 1.11 1.13 1.24 1.28 1.31 1.34 1.24 1.16 1.16 1.16 1.19 1.04 0.90 0.92 0.95 1.14 1.39 1.48 1.44 1.38
0.96 1.02 1.06 1.08 1.15 1.18 1.15 1.26 1.43 1.38 1.23 1.15 1.12 1.17 1.27 1.63 2.01 1.99 1.89 1.62 1.32 1.16 1.08 1.07 1.13 1.27 1.33 1.50 1.63 1.51 1.47 1.56 1.52 1.50 1.38 1.27 1.20 1.25 1.34 1.39 1.55 1.57 1.56
0.85 0.94 1.01 1.09 1.22 1.23 1.17 1.20 1.32 1.39 1.32 1.21 1.13 1.13 1.18 1.47 2.14 2.28 1.94 1.49 1.28 1.16 1.11 1.07 1.07 1.20 1.23 1.35 1.55 1.64 1.70 1.81 1.88 1.84 1.75 1.60 1.35 1.27 1.32 1.46 1.55 1.73 1.80
0.81 0.88 0.94 1.00 1.16 1.23 1.21 1.26 1.30 1.37 1.43 1.41 1.25 1.13 1.09 1.27 1.93 2.07 1.79 1.39 1.22 1.15 1.09 1.08 1.08 1.13 1.20 1.18 1.29 1.35 1.39 1.55 1.78 1.89 1.94 1.56 1.34 1.29 1.51 1.71 1.67 1.75 1.72
0.86 0.89 0.93 0.94 1.00 1.15 1.25 1.28 1.29 1.32 1.35 1.41 1.35 1.23 1.13 1.20 1.73 1.91 1.70 1.36 1.22 1.15 1.07 1.06 1.06 1.08 1.18 1.38 1.34 1.29 1.19 1.21 1.42 1.62 1.88 1.71 1.53 1.56 1.89 2.21 2.28 2.16 1.78
0.93 0.95 0.92 0.88 0.92 1.04 1.15 1.25 1.29 1.30 1.26 1.28 1.27 1.25 1.20 1.17 1.53 1.80 1.62 1.30 1.24 1.16 1.06 1.03 1.04 1.05 1.29 1.56 1.48 1.33 1.15 1.06 1.17 1.50 1.81 1.95 2.00 2.12 2.34 2.66 2.82 2.64 2.19
0.90 0.96 0.89 0.80 0.78 0.82 0.94 1.13 1.24 1.25 1.20 1.20 1.21 1.22 1.15 1.07 1.33 1.61 1.60 1.30 1.20 1.15 1.10 1.05 1.17 1.26 1.44 1.57 1.44 1.40 1.48 1.26 1.11 1.16 1.25 1.36 1.45 1.62 2.01 2.30 2.60 2.68 2.33
0.89 0.96 0.88 0.79 0.78 0.79 0.86 1.04 1.17 1.24 1.23 1.17 1.14 1.15 1.10 1.08 1.19 1.38 1.59 1.38 1.22 1.16 1.14 1.10 1.08 1.32 1.42 1.50 1.52 1.47 1.70 1.59 1.34 1.34 1.29 1.24 1.22 1.34 1.54 1.85 2.25 2.58 2.60
0.91 0.90 0.90 0.87 0.83 0.84 0.88 1.01 1.14 1.22 1.28 1.22 1.13 1.10 1.08 1.07 1.17 1.31 1.48 1.51 1.39 1.18 1.08 0.98 1.04 1.27 1.36 1.47 1.46 1.54 1.66 1.59 1.40 1.35 1.26 1.20 1.21 1.27 1.36 1.52 1.84 2.10 2.22
0.88 0.90 0.90 0.91 0.89 0.90 0.94 1.03 1.15 1.21 1.25 1.23 1.14 1.08 1.06 1.01 1.16 1.41 1.34 1.38 1.42 1.22 1.08 1.17 1.24 1.34 1.36 1.29 1.35 1.44 1.42 1.35 1.43 1.43 1.27 1.17 1.19 1.31 1.37 1.41 1.55 1.82 1.98
0.78 0.85 0.85 0.89 0.94 0.98 1.01 1.04 1.12 1.21 1.27 1.18 1.11 1.03 0.97 1.00 1.19 1.36 1.29 1.26 1.34 1.32 1.26 1.31 1.38 1.36 1.27 1.18 1.21 1.22 1.17 1.26 1.41 1.41 1.27 1.14 1.12 1.23 1.37 1.46 1.56 1.70 1.91
0.70 0.81 0.87 0.92 0.98 1.01 1.04 1.08 1.15 1.17 1.30 1.25 1.11 1.04 1.05 1.16 1.35 1.46 1.40 1.32 1.31 1.33 1.44 1.50 1.43 1.34 1.30 1.18 1.08 1.03 1.06 1.22 1.34 1.25 1.22 1.20 1.17 1.19 1.25 1.36 1.58 1.72 1.86
0.72 0.78 0.87 0.94 0.96 0.95 0.94 1.01 1.17 1.20 1.23 1.18 1.11 1.08 1.03 1.20 1.36 1.41 1.48 1.50 1.50 1.57 1.61 1.53 1.32 1.17 1.13 1.09 1.07 1.04 1.00 1.03 1.09 1.17 1.21 1.21 1.20 1.22 1.24 1.25 1.41 1.65 1.79
0.71 0.77 0.84 0.92 0.91 0.87 0.83 0.84 0.95 1.12 1.20 1.18 1.14 1.09 1.08 1.17 1.22 1.31 1.44 1.53 1.57 1.58 1.49 1.27 1.10 1.04 1.01 0.99 0.98 0.97 0.94 0.88 0.93 1.03 1.08 1.12 1.17 1.20 1.23 1.24 1.29 1.44 1.61
0.68 0.79 0.83 0.86 0.88 0.86 0.84 0.83 0.85 0.93 1.04 1.11 1.15 1.10 1.08 1.12 1.17 1.26 1.40 1.52 1.56 1.43 1.24 1.14 1.05 0.98 0.96 0.99 1.00 0.99 0.95 0.91 0.93 0.96 0.99 1.00 1.09 1.19 1.21 1.19 1.22 1.35 1.50
0.71 0.76 0.77 0.81 0.86 0.87 0.86 0.88 0.89 0.92 0.95 0.99 1.05 1.17 1.25 1.22 1.25 1.30 1.33 1.28 1.24 1.17 1.11 1.09 1.05 1.02 1.01 1.01 1.03 1.03 1.02 0.99 0.95 0.95 0.95 0.95 0.97 1.07 1.11 1.07 1.10 1.24 1.40
0.73 0.84 0.82 0.82 0.86 0.88 0.89 0.93 0.98 1.00 1.01 0.99 1.00 1.10 1.28 1.41 1.38 1.36 1.25 1.16 1.15 1.07 1.02 1.07 1.06 1.06 1.06 1.06 1.07 1.07 1.06 1.00 0.95 0.95 0.91 0.90 0.91 0.97 1.01 1.02 1.08 1.15 1.21
0.69 0.76 0.85 0.82 0.81 0.84 0.89 0.93 0.98 1.04 1.05 0.99 0.94 1.04 1.28 1.38 1.30 1.15 1.11 1.13 1.19 1.19 1.13 1.10 1.08 1.08 1.07 1.09 1.09 1.07 1.03 0.96 0.90 0.89 0.89 0.88 0.90 0.94 0.93 0.97 1.02 1.08 1.15
0.70 0.73 0.76 0.78 0.81 0.86 0.91 0.93 1.00 1.05 1.04 1.01 0.99 1.05 1.20 1.14 1.13 1.12 1.09 1.09 1.16 1.22 1.22 1.22 1.17 1.11 1.12 1.16 1.17 1.14 1.04 0.92 0.85 0.85 0.87 0.87 0.87 0.89 0.91 0.93 0.93 0.98 1.06
0.73 0.76 0.78 0.76 0.78 0.90 0.95 0.93 0.97 1.02 1.05 1.04 1.05 1.07 1.10 1.08 1.08 1.11 1.14 1.15 1.21 1.23 1.20 1.19 1.17 1.11 1.05 1.05 1.07 1.13 1.11 0.96 0.86 0.88 0.96 0.94 0.90 0.89 0.91 0.93 0.91 0.94 0.99
0.78 0.81 0.81 0.79 0.78 0.84 0.90 0.93 0.96 0.99 1.03 1.06 1.07 1.09 1.10 1.10 1.09 1.11 1.16 1.22 1.25 1.23 1.17 1.16 1.11 1.06 1.01 1.00 0.96 0.95 0.95 0.96 0.98 0.99 0.99 1.01 0.95 0.90 0.92 0.95 0.92 0.93 0.99
0.80 0.81 0.82 0.81 0.82 0.83 0.88 0.92 0.94 0.96 1.00 1.03 1.06 1.08 1.10 1.11 1.12 1.11 1.13 1.17 1.18 1.15 1.10 1.09 1.08 1.06 1.02 0.97 0.93 0.90 0.97 1.04 1.09 1.17 1.19 1.13 1.01 0.93 0.95 0.95 0.91 0.91 0.96
0.76 0.77 0.79 0.83 0.85 0.86 0.92 0.97 0.97 0.95 1.01 1.02 1.04 1.06 1.09 1.11 1.12 1.08 1.05 1.07 1.08 1.05 1.02 1.00 0.99 1.02 1.01 0.99 0.97 1.02 1.08 1.05 1.06 1.13 1.24 1.23 1.07 0.92 0.93 0.95 0.90 0.92 0.95